sat.trackr.live / text

‹ back to catalog

STARLINK-31249

NORAD 58838 · 2024-017N

PAYLOAD ACTIVE UNKNOWN

§ Identity

Operator
Country
US
Launch date
2024-01-24
Launch site
AFWTR
Launch vehicle
Mass (kg)
RCS (m²)

Purposes: comms

External: N2YO · Heavens-Above · Gunter

§ Orbital elements

Epoch: 2026-09-20T22:52:01.818912Z

Period
93.85 min
Inclination
53.1626°
Eccentricity
0.0000956
Mean motion
15.34373578 rev/d
Perigee alt
462.1 km
Apogee alt
463.4 km
Semi-major
6,840.9 km
B*
-4.0429e-5
RAAN
15.8013°
Arg perigee
89.7264°
Mean anomaly
270.3848°
Rev number
14,997

§ Raw data

STARLINK-312491 58838U 24017N   26263.95279883 -.00001740  00000+0 -40429-4 0  99922 58838  53.1626  15.8013 0000956  89.7264 270.3848 15.34373578149979

JSON: /api/v1/satellites/58838 · /tle

For live sub-satellite position, see the globe view (requires WebGL).

§ Visibility from observer

Set your observer location to see the next 7 days of passes ≥ 10°. The values pass through the URL so the page stays shareable.

No JS? Fill the form by hand. The geolocation button needs JavaScript.